Joliet, IL

12:10 PM CST on February 22, 2017 (GMT -0600)
Joliet Regional

Weather History for KJOT - May, 2013

Change the Weather History Date:

Wednesday, May 15, 2013

  Actual Average (KARR) Record (KARR)
Temperature  
Mean Temperature 70 °F -  
Max Temperature 84 °F 68 °F 88 °F (2001)
Min Temperature 57 °F 47 °F 33 °F (2016)
Cooling Degree Days 6    
Growing Degree Days 20 (Base 50)    
Moisture  
Dew Point 48 °F    
Average Humidity 41    
Maximum Humidity 79    
Minimum Humidity 20    
Precipitation  
Precipitation 0.00 in - - ()
Sea Level Pressure  
Sea Level Pressure 29.79 in    
Wind  
Wind Speed 7 mph (West)    
Max Wind Speed 14 mph    
Max Gust Speed 24 mph    
Visibility 10 miles    
Events Rain , Thunderstorm    
Averages and records for this station are not official NWS values.
T = Trace of Precipitation, MM = Missing Value Source: NWS Daily Summary

Daily Weather History Graph

Daily Weather History Graph

Search for Another Location

Airport or City:

Trip Planner

Search our weather history database for the weather conditions in past years. The results will help you decide how hot, cold, wet, or windy it might be!

Date:

Astronomy

May. 15, 2013 Rise Set
Actual Time 5:33 AM CDT 8:05 PM CDT
Civil Twilight 5:01 AM CDT 8:37 PM CDT
Nautical Twilight 4:22 AM CDT 9:16 PM CDT
Astronomical Twilight 3:38 AM CDT 10:01 PM CDT
Moon 10:09 AM CDT (5/15) No Moon Set
Length of Visible Light 15h 35m
Length of Day
14h 32m
Waxing Crescent, 27% of the Moon is Illuminated
May 15
Waxing Crescent
May 17
First Quarter
May 24
Full
May 31
Last Quarter
Jun 8
New

Hourly Weather History & Observations

Time (CDT) Temp. Dew Point Humidity Pressure Visibility Wind Dir Wind Speed Gust Speed Precip Events Conditions
12:15 AM 72.5 °F 58.1 °F 60% 29.70 in 10.0 mi SSW 4.6 mph - N/A   Clear
12:35 AM 73.6 °F 56.5 °F 55% 29.70 in 10.0 mi SSW 4.6 mph - N/A   Clear
12:55 AM 72.1 °F 57.0 °F 59% 29.69 in 10.0 mi SSW 5.8 mph - N/A   Clear
1:15 AM 73.6 °F 55.4 °F 53% 29.69 in 10.0 mi SSW 6.9 mph - N/A   Clear
1:35 AM 73.9 °F 54.5 °F 51% 29.69 in 10.0 mi SW 6.9 mph - N/A   Clear
1:55 AM 74.7 °F 53.6 °F 48% 29.69 in 10.0 mi SW 9.2 mph - N/A   Clear
2:15 AM 75.7 °F 51.8 °F 43% 29.69 in 10.0 mi SW 12.7 mph 17.3 mph N/A   Clear
2:35 AM 77.2 °F 50.0 °F 38% 29.69 in 10.0 mi WSW 13.8 mph 24.2 mph N/A   Clear
2:55 AM 77.0 °F 50.0 °F 39% 29.69 in 10.0 mi WSW 12.7 mph 21.9 mph N/A   Clear
3:15 AM 76.5 °F 50.5 °F 40% 29.69 in 10.0 mi WSW 10.4 mph 18.4 mph N/A   Clear
3:35 AM 76.1 °F 50.9 °F 41% 29.69 in 10.0 mi WSW 11.5 mph 17.3 mph N/A   Clear
3:55 AM 76.1 °F 51.3 °F 42% 29.70 in 10.0 mi WSW 9.2 mph - N/A   Clear
4:15 AM 75.7 °F 51.4 °F 43% 29.71 in 10.0 mi WSW 8.1 mph 17.3 mph N/A   Clear
4:35 AM 75.6 °F 51.4 °F 43% 29.72 in 10.0 mi West 10.4 mph 16.1 mph N/A   Clear
4:55 AM 75.2 °F 51.3 °F 43% 29.72 in 10.0 mi WSW 10.4 mph 17.3 mph N/A   Clear
5:15 AM 73.4 °F 53.4 °F 49% 29.73 in 10.0 mi West 9.2 mph 17.3 mph N/A Rain Light Rain
5:35 AM 72.9 °F 52.5 °F 49% 29.74 in 10.0 mi WSW 8.1 mph - N/A   Clear
5:55 AM 72.3 °F 51.4 °F 48% 29.76 in 10.0 mi West 10.4 mph - N/A   Clear
6:15 AM 72.5 °F 51.1 °F 47% 29.76 in 10.0 mi West 5.8 mph - N/A   Clear
6:35 AM 72.5 °F 50.5 °F 46% 29.77 in 10.0 mi WSW 11.5 mph 19.6 mph N/A Thunderstorm Thunderstorm
6:55 AM 72.9 °F 50.0 °F 44% 29.78 in 10.0 mi West 10.4 mph - N/A Thunderstorm Clear
7:15 AM 72.9 °F 49.6 °F 44% 29.79 in 10.0 mi West 10.4 mph 16.1 mph N/A   Clear
7:35 AM 73.4 °F 47.8 °F 40% 29.79 in 10.0 mi West 6.9 mph 16.1 mph N/A   Clear
7:55 AM 73.4 °F 48.6 °F 41% 29.80 in 10.0 mi West 6.9 mph - N/A   Clear
8:15 AM 73.6 °F 48.7 °F 41% 29.81 in 10.0 mi West 8.1 mph - N/A   Clear
8:35 AM 75.4 °F 46.8 °F 36% 29.81 in 10.0 mi West 6.9 mph - N/A   Clear
8:55 AM 75.7 °F 48.2 °F 38% 29.82 in 10.0 mi WSW 6.9 mph - N/A Thunderstorm Clear
9:15 AM 76.1 °F 47.1 °F 36% 29.83 in 10.0 mi West 8.1 mph - N/A   Clear
9:35 AM 76.1 °F 50.5 °F 41% 29.82 in 10.0 mi West 8.1 mph - N/A   Clear
9:55 AM 76.5 °F 50.5 °F 40% 29.83 in 10.0 mi WNW 9.2 mph - N/A   Clear
10:15 AM 77.9 °F 45.3 °F 31% 29.82 in 10.0 mi WNW 9.2 mph - N/A   Clear
10:35 AM 77.7 °F 45.0 °F 31% 29.82 in 10.0 mi NW 8.1 mph - N/A   Clear
10:55 AM 78.6 °F 45.7 °F 31% 29.83 in 10.0 mi WNW 3.5 mph - N/A   Clear
11:15 AM 78.8 °F 43.7 °F 29% 29.83 in 10.0 mi West 8.1 mph - N/A   Clear
11:35 AM 79.9 °F 43.3 °F 27% 29.84 in 10.0 mi West 5.8 mph - N/A   Clear
11:55 AM 80.6 °F 42.3 °F 26% 29.83 in 10.0 mi WNW 5.8 mph - N/A   Clear
12:15 PM 82.0 °F 42.4 °F 25% 29.83 in 10.0 mi WNW 6.9 mph - N/A   Clear
12:35 PM 81.9 °F 41.2 °F 24% 29.83 in 10.0 mi NW 6.9 mph - N/A   Clear
12:55 PM 82.9 °F 41.2 °F 23% 29.82 in 10.0 mi NNW 6.9 mph - N/A   Clear
1:15 PM 81.7 °F 39.4 °F 22% 29.82 in 10.0 mi WNW 3.5 mph - N/A   Clear
1:35 PM 82.8 °F 40.5 °F 22% 29.83 in 10.0 mi NW 5.8 mph - N/A   Clear
1:55 PM 84.0 °F 39.6 °F 21% 29.83 in 10.0 mi WNW 9.2 mph - N/A   Clear
2:15 PM 83.3 °F 39.9 °F 21% 29.83 in 10.0 mi NW 9.2 mph - N/A   Clear
2:35 PM 82.9 °F 39.6 °F 21% 29.82 in 10.0 mi NNW 4.6 mph - N/A   Clear
2:55 PM 84.6 °F 41.0 °F 21% 29.81 in 10.0 mi WNW 5.8 mph - N/A   Clear
3:15 PM 84.2 °F 42.3 °F 23% 29.81 in 10.0 mi NNW 11.5 mph 16.1 mph N/A   Clear
3:35 PM 84.4 °F 38.5 °F 20% 29.80 in 10.0 mi NNW 6.9 mph - N/A   Clear
3:55 PM 83.7 °F 39.9 °F 21% 29.80 in 10.0 mi North 6.9 mph - N/A   Clear
4:15 PM 84.0 °F 40.8 °F 22% 29.79 in 10.0 mi North 5.8 mph - N/A   Clear
4:35 PM 83.3 °F 43.0 °F 24% 29.80 in 10.0 mi NNE 5.8 mph - N/A   Clear
4:55 PM 81.7 °F 43.0 °F 25% 29.80 in 10.0 mi North 5.8 mph - N/A   Clear
5:15 PM 82.6 °F 42.8 °F 25% 29.80 in 10.0 mi NNW 4.6 mph - N/A   Clear
5:35 PM 82.4 °F 42.8 °F 25% 29.80 in 10.0 mi North 9.2 mph - N/A   Clear
5:55 PM 78.8 °F 50.9 °F 38% 29.80 in 10.0 mi ENE 6.9 mph - N/A   Clear
6:15 PM 76.8 °F 50.9 °F 40% 29.80 in 10.0 mi ENE 5.8 mph - N/A   Clear
6:35 PM 77.4 °F 54.3 °F 45% 29.81 in 10.0 mi ESE 4.6 mph - N/A   Clear
6:55 PM 73.4 °F 52.3 °F 48% 29.82 in 10.0 mi Calm Calm - N/A   Clear
7:15 PM 72.5 °F 52.7 °F 50% 29.82 in 10.0 mi Calm Calm - N/A   Clear
7:35 PM 72.1 °F 51.6 °F 48% 29.80 in 10.0 mi SE 4.6 mph - N/A Rain Light Rain
7:55 PM 70.9 °F 52.7 °F 53% 29.81 in 10.0 mi NE 3.5 mph - N/A   Clear
8:15 PM 69.8 °F 51.8 °F 53% 29.81 in 10.0 mi South 4.6 mph - N/A   Clear
8:35 PM 68.2 °F 51.8 °F 56% 29.82 in 10.0 mi South 4.6 mph - N/A   Clear
8:55 PM 69.3 °F 50.2 °F 51% 29.83 in 10.0 mi Calm Calm - N/A   Clear
9:15 PM 64.9 °F 52.5 °F 64% 29.85 in 10.0 mi Calm Calm - N/A   Clear
9:35 PM 65.3 °F 52.0 °F 62% 29.85 in 10.0 mi North 5.8 mph - N/A   Clear
9:55 PM 65.3 °F 51.8 °F 62% 29.85 in 10.0 mi NE 3.5 mph - N/A   Clear
10:15 PM 64.8 °F 50.9 °F 61% 29.84 in 10.0 mi Calm Calm - N/A   Clear
10:35 PM 62.2 °F 51.1 °F 67% 29.84 in 10.0 mi Calm Calm - N/A   Clear
10:55 PM 64.6 °F 51.1 °F 62% 29.83 in 10.0 mi Calm Calm - N/A   Clear
11:15 PM 63.3 °F 52.0 °F 66% 29.83 in 10.0 mi Calm Calm - N/A   Clear
11:35 PM 57.7 °F 51.1 °F 78% 29.83 in 10.0 mi Calm Calm - N/A   Clear
11:55 PM 59.2 °F 52.7 °F 79% 29.84 in 10.0 mi Calm Calm - N/A   Clear